"read_dt","SO2 (ppb)","flags","PMT voltage (V)","lamp voltage (V)","lamp intensity (Hz)","internal temp (C)","react chamber temp (C)","sample flow (l/min)","pres (mmHg)","SO2 bkg (ppb)","SO2 coefficient"
2017-04-07 00:00:00,1763E-3,5C000400,-0724,0836,11975,031.9,045.6,0.213,749.7,01.17,0.508
2017-04-07 00:01:00,1728E-3,5C000400,-0724,0837,11954,032.0,045.6,0.213,749.7,01.17,0.508
2017-04-07 00:02:00,1773E-3,5C000400,-0724,0837,12192,032.0,045.6,0.213,749.7,01.17,0.508
2017-04-07 00:03:00,1541E-3,5C000400,-0724,0837,12092,032.0,045.6,0.213,749.7,01.17,0.508
2017-04-07 00:04:00,1752E-3,5C000400,-0724,0836,12116,032.0,045.6,0.213,749.7,01.17,0.508
2017-04-07 00:05:00,1595E-3,5C000400,-0724,0837,11909,032.0,045.6,0.213,749.7,01.17,0.508
2017-04-07 00:06:00,1667E-3,5C000400,-0724,0836,12135,032.0,045.6,0.213,749.7,01.17,0.508
2017-04-07 00:07:00,1676E-3,5C000400,-0724,0837,12071,032.0,045.6,0.213,749.8,01.17,0.508
2017-04-07 00:08:00,1730E-3,5C000400,-0724,0836,12133,032.0,045.6,0.213,749.8,01.17,0.508
2017-04-07 00:09:00,1678E-3,5C000400,-0724,0837,12139,032.0,045.6,0.213,749.8,01.17,0.508
2017-04-07 00:10:00,1617E-3,5C000400,-0724,0836,12090,032.0,045.6,0.213,749.8,01.17,0.508
2017-04-07 00:11:00,1656E-3,5C000400,-0724,0837,11988,032.0,045.6,0.213,749.8,01.17,0.508
2017-04-07 00:12:00,1726E-3,5C000400,-0724,0836,12085,032.0,045.6,0.213,749.8,01.17,0.508
2017-04-07 00:13:00,1596E-3,5C000400,-0724,0836,12168,032.1,045.6,0.213,749.8,01.17,0.508
2017-04-07 00:14:00,1752E-3,5C000400,-0724,0837,12074,032.1,045.6,0.213,749.8,01.17,0.508
2017-04-07 00:15:00,1492E-3,5C000400,-0724,0837,12056,032.1,045.6,0.213,749.8,01.17,0.508
2017-04-07 00:16:00,1562E-3,5C000400,-0724,0837,11982,032.1,045.6,0.213,749.8,01.17,0.508
2017-04-07 00:17:00,1638E-3,5C000400,-0724,0837,11942,032.1,045.6,0.213,749.8,01.17,0.508
2017-04-07 00:18:00,1553E-3,5C000400,-0724,0837,12037,032.1,045.6,0.212,749.8,01.17,0.508
2017-04-07 00:19:00,1649E-3,5C000400,-0724,0837,11999,032.1,045.6,0.212,749.8,01.17,0.508
2017-04-07 00:20:00,1739E-3,5C000400,-0724,0837,12118,032.1,045.6,0.212,749.8,01.17,0.508
2017-04-07 00:21:00,1647E-3,5C000400,-0724,0837,12022,032.1,045.6,0.212,749.8,01.17,0.508
2017-04-07 00:22:00,1681E-3,5C000400,-0724,0837,12141,032.1,045.6,0.212,749.8,01.17,0.508
2017-04-07 00:23:00,1768E-3,5C000400,-0724,0837,12033,032.1,045.6,0.213,749.8,01.17,0.508
2017-04-07 00:24:00,1753E-3,5C000400,-0724,0837,12075,032.2,045.6,0.212,749.8,01.17,0.508
2017-04-07 00:25:00,1656E-3,5C000400,-0724,0837,12096,032.2,045.6,0.213,749.8,01.17,0.508
2017-04-07 00:26:00,1704E-3,5C000400,-0724,0837,12068,032.2,045.6,0.213,749.8,01.17,0.508
2017-04-07 00:27:00,1744E-3,5C000400,-0724,0836,12094,032.2,045.6,0.213,749.8,01.17,0.508
2017-04-07 00:28:00,1728E-3,5C000400,-0724,0837,12117,032.2,045.6,0.213,749.8,01.17,0.508
2017-04-07 00:29:00,1614E-3,5C000400,-0724,0837,11995,032.2,045.6,0.213,749.8,01.17,0.508
2017-04-07 00:30:00,1656E-3,5C000400,-0724,0837,12106,032.2,045.6,0.213,749.8,01.17,0.508
2017-04-07 00:31:00,1716E-3,5C000400,-0724,0836,12196,032.2,045.6,0.213,749.8,01.17,0.508
2017-04-07 00:32:00,1819E-3,5C000400,-0724,0837,11915,032.2,045.6,0.212,749.8,01.17,0.508
2017-04-07 00:33:00,1673E-3,5C000400,-0724,0837,12075,032.2,045.6,0.212,749.8,01.17,0.508
2017-04-07 00:34:00,1734E-3,5C000400,-0724,0837,12109,032.2,045.6,0.212,749.8,01.17,0.508
2017-04-07 00:35:00,1595E-3,5C000400,-0724,0837,12051,032.2,045.6,0.212,749.8,01.17,0.508
2017-04-07 00:36:00,1630E-3,5C000400,-0724,0837,12031,032.2,045.6,0.212,749.8,01.17,0.508
2017-04-07 00:37:00,1682E-3,5C000400,-0724,0837,12030,032.3,045.6,0.212,749.8,01.17,0.508
2017-04-07 00:38:00,1754E-3,5C000400,-0724,0836,12156,032.3,045.6,0.212,749.8,01.17,0.508
2017-04-07 00:39:00,1641E-3,5C000400,-0724,0838,12134,032.3,045.6,0.212,749.8,01.17,0.508
2017-04-07 00:40:00,1648E-3,5C000400,-0724,0837,12054,032.3,045.6,0.212,749.8,01.17,0.508
2017-04-07 00:41:00,1761E-3,5C000400,-0724,0836,11921,032.3,045.6,0.212,749.8,01.17,0.508
2017-04-07 00:42:00,1703E-3,5C000400,-0724,0837,12044,032.3,045.6,0.212,749.8,01.17,0.508
2017-04-07 00:43:00,1643E-3,5C000400,-0724,0837,11981,032.3,045.6,0.212,749.8,01.17,0.508
2017-04-07 00:44:00,1785E-3,5C000400,-0724,0837,12036,032.3,045.6,0.212,749.8,01.17,0.508
2017-04-07 00:45:00,1693E-3,5C000400,-0724,0837,12036,032.3,045.6,0.212,749.8,01.17,0.508
2017-04-07 00:46:00,1739E-3,5C000400,-0724,0836,12025,032.3,045.6,0.212,749.8,01.17,0.508
2017-04-07 00:47:00,1671E-3,5C000400,-0724,0837,11928,032.3,045.6,0.212,749.8,01.17,0.508
2017-04-07 00:48:00,1664E-3,5C000400,-0724,0837,11944,032.3,045.6,0.212,749.8,01.17,0.508
2017-04-07 00:49:00,1779E-3,5C000400,-0724,0837,12145,032.4,045.6,0.212,749.8,01.17,0.508
2017-04-07 00:50:00,1643E-3,5C000400,-0724,0836,12097,032.4,045.6,0.212,749.8,01.17,0.508
2017-04-07 00:51:00,1653E-3,5C000400,-0724,0836,11992,032.4,045.6,0.212,749.8,01.17,0.508
2017-04-07 00:52:00,1830E-3,5C000400,-0724,0836,12188,032.4,045.6,0.212,749.8,01.17,0.508
2017-04-07 00:53:00,1652E-3,5C000400,-0724,0837,12107,032.4,045.6,0.212,749.8,01.17,0.508
2017-04-07 00:54:00,1680E-3,5C000400,-0724,0837,12064,032.4,045.6,0.212,749.8,01.17,0.508
2017-04-07 00:55:00,1619E-3,5C000400,-0724,0837,12086,032.4,045.6,0.212,749.8,01.17,0.508
2017-04-07 00:56:00,1747E-3,5C000400,-0724,0837,12236,032.4,045.6,0.212,749.8,01.17,0.508
2017-04-07 00:57:00,1598E-3,5C000400,-0724,0837,12059,032.4,045.6,0.212,749.8,01.17,0.508
2017-04-07 00:58:00,1729E-3,5C000400,-0724,0837,12031,032.4,045.6,0.212,749.8,01.17,0.508
2017-04-07 00:59:00,1547E-3,5C000400,-0724,0836,12040,032.4,045.6,0.212,749.8,01.17,0.508
2017-04-07 01:00:00,1735E-3,5C000400,-0724,0837,12022,032.5,045.6,0.212,749.8,01.17,0.508
2017-04-07 01:01:00,1756E-3,5C000400,-0724,0837,12025,032.5,045.6,0.212,749.8,01.17,0.508
2017-04-07 01:02:00,1701E-3,5C000400,-0724,0838,11978,032.5,045.6,0.212,749.8,01.17,0.508
2017-04-07 01:03:00,1688E-3,5C000400,-0724,0837,11911,032.5,045.6,0.212,749.8,01.17,0.508
2017-04-07 01:04:00,1696E-3,5C000400,-0724,0837,12142,032.5,045.6,0.212,749.7,01.17,0.508
2017-04-07 01:05:00,1656E-3,5C000400,-0724,0837,12086,032.5,045.6,0.212,749.7,01.17,0.508
2017-04-07 01:06:00,1659E-3,5C000400,-0724,0837,12102,032.5,045.6,0.212,749.8,01.17,0.508
2017-04-07 01:07:00,1810E-3,5C000400,-0724,0836,12156,032.5,045.6,0.212,749.8,01.17,0.508
2017-04-07 01:08:00,1578E-3,5C000400,-0724,0838,11974,032.5,045.6,0.212,749.8,01.17,0.508
2017-04-07 01:09:00,1775E-3,5C000400,-0724,0837,12121,032.6,045.6,0.212,749.8,01.17,0.508
2017-04-07 01:10:00,1780E-3,5C000400,-0724,0837,12101,032.5,045.6,0.212,749.8,01.17,0.508
2017-04-07 01:11:00,1744E-3,5C000400,-0724,0837,12068,032.5,045.6,0.212,749.8,01.17,0.508
2017-04-07 01:12:00,1622E-3,5C000400,-0724,0837,12113,032.5,045.6,0.211,749.8,01.17,0.508
2017-04-07 01:13:00,1742E-3,5C000400,-0724,0837,12148,032.6,045.6,0.212,749.7,01.17,0.508
2017-04-07 01:14:00,1719E-3,5C000400,-0724,0837,12087,032.6,045.6,0.212,749.7,01.17,0.508
2017-04-07 01:15:00,1692E-3,5C000400,-0724,0838,11986,032.6,045.6,0.212,749.7,01.17,0.508
2017-04-07 01:16:00,1674E-3,5C000400,-0724,0837,12062,032.6,045.6,0.212,749.7,01.17,0.508
2017-04-07 01:17:00,1719E-3,5C000400,-0724,0838,12081,032.6,045.6,0.212,749.7,01.17,0.508
2017-04-07 01:18:00,1581E-3,5C000400,-0724,0837,12018,032.6,045.6,0.211,749.7,01.17,0.508
2017-04-07 01:19:00,1688E-3,5C000400,-0724,0837,12039,032.6,045.6,0.211,749.7,01.17,0.508
2017-04-07 01:20:00,1655E-3,5C000400,-0724,0837,11993,032.6,045.6,0.211,749.7,01.17,0.508
2017-04-07 01:21:00,1676E-3,5C000400,-0724,0838,11965,032.6,045.6,0.212,749.7,01.17,0.508
2017-04-07 01:22:00,1742E-3,5C000400,-0724,0837,12084,032.6,045.6,0.212,749.6,01.17,0.508
2017-04-07 01:23:00,1502E-3,5C000400,-0724,0837,12023,032.6,045.6,0.212,749.7,01.17,0.508
2017-04-07 01:24:00,1498E-3,5C000400,-0724,0838,12104,032.6,045.6,0.212,749.8,01.17,0.508
2017-04-07 01:25:00,1678E-3,5C000400,-0724,0838,12034,032.7,045.6,0.212,749.8,01.17,0.508
2017-04-07 01:26:00,1670E-3,5C000400,-0724,0837,11874,032.6,045.6,0.211,749.8,01.17,0.508
2017-04-07 01:27:00,1672E-3,5C000400,-0724,0837,12046,032.6,045.6,0.211,749.8,01.17,0.508
2017-04-07 01:28:00,1634E-3,5C000400,-0724,0837,12037,032.7,045.6,0.211,749.8,01.17,0.508
2017-04-07 01:29:00,1623E-3,5C000400,-0724,0838,12079,032.7,045.6,0.211,749.8,01.17,0.508
2017-04-07 01:30:00,1720E-3,5C000400,-0724,0836,12013,032.7,045.6,0.211,749.8,01.17,0.508
2017-04-07 01:31:00,1661E-3,5C000400,-0724,0837,12115,032.7,045.6,0.212,749.8,01.17,0.508
2017-04-07 01:32:00,1703E-3,5C000400,-0724,0837,12074,032.7,045.6,0.211,749.8,01.17,0.508
2017-04-07 01:33:00,1678E-3,5C000400,-0724,0837,11953,032.7,045.6,0.211,749.8,01.17,0.508
2017-04-07 01:34:00,1599E-3,5C000400,-0724,0837,11991,032.7,045.6,0.211,749.8,01.17,0.508
2017-04-07 01:35:00,1795E-3,5C000400,-0724,0837,12040,032.7,045.6,0.211,749.8,01.17,0.508
2017-04-07 01:36:00,1645E-3,5C000400,-0724,0837,12008,032.7,045.6,0.211,749.8,01.17,0.508
2017-04-07 01:37:00,1726E-3,5C000400,-0724,0837,12106,032.8,045.6,0.211,749.8,01.17,0.508
2017-04-07 01:38:00,1673E-3,5C000400,-0724,0837,12211,032.8,045.6,0.211,749.9,01.17,0.508
2017-04-07 01:39:00,1729E-3,5C000400,-0724,0838,12094,032.8,045.6,0.211,749.9,01.17,0.508
2017-04-07 01:40:00,1733E-3,5C000400,-0724,0837,11977,032.8,045.6,0.211,749.9,01.17,0.508
2017-04-07 01:41:00,1672E-3,5C000400,-0724,0837,12115,032.8,045.6,0.211,749.9,01.17,0.508
2017-04-07 01:42:00,1607E-3,5C000400,-0724,0836,11948,032.8,045.6,0.211,749.8,01.17,0.508
2017-04-07 01:43:00,1631E-3,5C000400,-0724,0837,11957,032.8,045.6,0.211,749.9,01.17,0.508
2017-04-07 01:44:00,1637E-3,5C000400,-0724,0837,12059,032.8,045.6,0.211,749.9,01.17,0.508
2017-04-07 01:45:00,1624E-3,5C000400,-0724,0837,12098,032.8,045.6,0.211,749.9,01.17,0.508
2017-04-07 01:46:00,1592E-3,5C000400,-0724,0837,12084,032.8,045.6,0.211,749.9,01.17,0.508
2017-04-07 01:47:00,1640E-3,5C000400,-0724,0838,12117,032.8,045.6,0.211,749.9,01.17,0.508
2017-04-07 01:48:00,1695E-3,5C000400,-0724,0837,11953,032.8,045.6,0.211,749.9,01.17,0.508
2017-04-07 01:49:00,1710E-3,5C000400,-0724,0837,12083,032.8,045.6,0.211,749.8,01.17,0.508
2017-04-07 01:50:00,1769E-3,5C000400,-0724,0837,11962,032.8,045.6,0.211,749.8,01.17,0.508
2017-04-07 01:51:00,1712E-3,5C000400,-0724,0837,11868,032.9,045.6,0.211,749.8,01.17,0.508
2017-04-07 01:52:00,1588E-3,5C000400,-0724,0837,12013,032.9,045.6,0.211,749.8,01.17,0.508
2017-04-07 01:53:00,1668E-3,5C000400,-0724,0837,11952,032.9,045.6,0.211,749.8,01.17,0.508
2017-04-07 01:54:00,1790E-3,5C000400,-0724,0837,12006,032.9,045.6,0.211,749.8,01.17,0.508
2017-04-07 01:55:00,1731E-3,5C000400,-0724,0837,12105,032.9,045.6,0.211,749.8,01.17,0.508
2017-04-07 01:56:00,1641E-3,5C000400,-0724,0838,12001,032.9,045.6,0.211,749.8,01.17,0.508
2017-04-07 01:57:00,1601E-3,5C000400,-0724,0838,12102,032.9,045.6,0.211,749.8,01.17,0.508
2017-04-07 01:58:00,1589E-3,5C000400,-0724,0837,11987,032.9,045.6,0.211,749.8,01.17,0.508
2017-04-07 01:59:00,1521E-3,5C000400,-0724,0838,11982,033.0,045.6,0.211,749.8,01.17,0.508
2017-04-07 02:00:00,1578E-3,5C000400,-0724,0837,12095,032.9,045.6,0.211,749.8,01.17,0.508
2017-04-07 02:01:00,1614E-3,5C000400,-0724,0837,12140,033.0,045.6,0.211,749.9,01.17,0.508
2017-04-07 02:02:00,1654E-3,5C000400,-0724,0837,11860,033.0,045.6,0.211,749.9,01.17,0.508
2017-04-07 02:03:00,1712E-3,5C000400,-0724,0838,12126,033.0,045.6,0.211,749.9,01.17,0.508
2017-04-07 02:04:00,1622E-3,5C000400,-0724,0837,11899,033.0,045.6,0.211,749.8,01.17,0.508
2017-04-07 02:05:00,1682E-3,5C000400,-0724,0837,12083,033.0,045.6,0.211,749.8,01.17,0.508
2017-04-07 02:06:00,1671E-3,5C000400,-0724,0837,11997,032.9,045.6,0.211,749.8,01.17,0.508
2017-04-07 02:07:00,1582E-3,5C000400,-0724,0837,12028,032.9,045.6,0.211,749.9,01.17,0.508
2017-04-07 02:08:00,1640E-3,5C000400,-0724,0837,12032,032.7,045.6,0.211,749.9,01.17,0.508
2017-04-07 02:09:00,1611E-3,5C000400,-0724,0838,12183,032.6,045.6,0.211,749.9,01.17,0.508
2017-04-07 02:10:00,1688E-3,5C000400,-0724,0837,12016,032.4,045.6,0.211,749.9,01.17,0.508
2017-04-07 02:11:00,1740E-3,5C000400,-0724,0838,12170,032.1,045.6,0.211,749.9,01.17,0.508
2017-04-07 02:12:00,1835E-3,5C000400,-0724,0836,12176,031.9,045.6,0.211,750.0,01.17,0.508
2017-04-07 02:13:00,1802E-3,5C000400,-0724,0836,12093,031.6,045.6,0.211,750.0,01.17,0.508
2017-04-07 02:14:00,1738E-3,5C000400,-0724,0836,11957,031.4,045.6,0.211,750.0,01.17,0.508
2017-04-07 02:15:00,1737E-3,5C000400,-0724,0836,12026,031.1,045.6,0.212,750.0,01.17,0.508
2017-04-07 02:16:00,1722E-3,5C000400,-0724,0837,12061,030.8,045.5,0.213,750.0,01.17,0.508
2017-04-07 02:17:00,1808E-3,5C000400,-0724,0836,11987,030.6,045.5,0.213,750.0,01.17,0.508
2017-04-07 02:18:00,1673E-3,5C000400,-0724,0836,12165,030.5,045.5,0.213,750.1,01.17,0.508
2017-04-07 02:19:00,1585E-3,5C000400,-0724,0836,12038,030.4,045.5,0.214,750.0,01.17,0.508
2017-04-07 02:20:00,1748E-3,5C000400,-0724,0836,12116,030.2,045.5,0.214,750.0,01.17,0.508
2017-04-07 02:21:00,1828E-3,5C000400,-0724,0835,12050,030.1,045.5,0.214,750.0,01.17,0.508
2017-04-07 02:22:00,1685E-3,5C000400,-0724,0835,12181,030.1,045.5,0.215,750.0,01.17,0.508
2017-04-07 02:23:00,1631E-3,5C000400,-0724,0836,12179,030.1,045.5,0.215,750.0,01.17,0.508
2017-04-07 02:24:00,1592E-3,5C000400,-0724,0835,12114,030.2,045.6,0.215,750.0,01.17,0.508
2017-04-07 02:25:00,1672E-3,5C000400,-0724,0836,11973,030.3,045.5,0.215,750.0,01.17,0.508
2017-04-07 02:26:00,1789E-3,5C000400,-0724,0836,12056,030.4,045.5,0.216,750.0,01.17,0.508
2017-04-07 02:27:00,1717E-3,5C000400,-0724,0836,11927,030.4,045.5,0.215,750.0,01.17,0.508
2017-04-07 02:28:00,1643E-3,5C000400,-0724,0836,11959,030.5,045.6,0.216,750.0,01.17,0.508
2017-04-07 02:29:00,1640E-3,5C000400,-0724,0836,12113,030.6,045.6,0.216,750.0,01.17,0.508
2017-04-07 02:30:00,1738E-3,5C000400,-0724,0836,12102,030.6,045.6,0.216,750.1,01.17,0.508
2017-04-07 02:31:00,1536E-3,5C000400,-0724,0836,11926,030.7,045.6,0.216,750.0,01.17,0.508
2017-04-07 02:32:00,1619E-3,5C000400,-0724,0837,12056,030.8,045.6,0.216,750.0,01.17,0.508
2017-04-07 02:33:00,1724E-3,5C000400,-0724,0835,12023,030.8,045.6,0.216,750.0,01.17,0.508
2017-04-07 02:34:00,1628E-3,5C000400,-0724,0836,12143,030.9,045.6,0.215,750.0,01.17,0.508
2017-04-07 02:35:00,1816E-3,5C000400,-0724,0836,12009,031.0,045.5,0.216,750.0,01.17,0.508
2017-04-07 02:36:00,1782E-3,5C000400,-0724,0836,12076,031.0,045.6,0.215,750.0,01.17,0.508
2017-04-07 02:37:00,1759E-3,5C000400,-0724,0837,12009,031.1,045.6,0.215,750.1,01.17,0.508
2017-04-07 02:38:00,1726E-3,5C000400,-0724,0836,12139,031.1,045.6,0.215,750.0,01.17,0.508
2017-04-07 02:39:00,1643E-3,5C000400,-0724,0837,12160,031.2,045.6,0.215,750.0,01.17,0.508
2017-04-07 02:40:00,1677E-3,5C000400,-0724,0836,12005,031.3,045.5,0.215,750.0,01.17,0.508
2017-04-07 02:41:00,1867E-3,5C000400,-0724,0837,11885,031.3,045.6,0.215,750.0,01.17,0.508
2017-04-07 02:42:00,1682E-3,5C000400,-0724,0837,12219,031.3,045.6,0.215,750.0,01.17,0.508
2017-04-07 02:43:00,1704E-3,5C000400,-0724,0836,12056,031.4,045.6,0.214,750.0,01.17,0.508
2017-04-07 02:44:00,1712E-3,5C000400,-0724,0836,11914,031.4,045.6,0.215,750.0,01.17,0.508
2017-04-07 02:45:00,1714E-3,5C000400,-0724,0837,12017,031.5,045.5,0.215,750.0,01.17,0.508
2017-04-07 02:46:00,1699E-3,5C000400,-0724,0837,12079,031.6,045.6,0.215,750.0,01.17,0.508
2017-04-07 02:47:00,1751E-3,5C000400,-0724,0837,12125,031.6,045.6,0.215,750.0,01.17,0.508
2017-04-07 02:48:00,1600E-3,5C000400,-0724,0836,12039,031.6,045.6,0.214,750.0,01.17,0.508
2017-04-07 02:49:00,1677E-3,5C000400,-0724,0836,12092,031.7,045.6,0.214,750.0,01.17,0.508
2017-04-07 02:50:00,1667E-3,5C000400,-0724,0836,11998,031.7,045.6,0.214,750.0,01.17,0.508
2017-04-07 02:51:00,1664E-3,5C000400,-0724,0836,12083,031.7,045.6,0.214,750.0,01.17,0.508
2017-04-07 02:52:00,1700E-3,5C000400,-0724,0837,12093,031.8,045.6,0.214,750.0,01.17,0.508
2017-04-07 02:53:00,1826E-3,5C000400,-0724,0837,12111,031.8,045.6,0.214,750.0,01.17,0.508
2017-04-07 02:54:00,1640E-3,5C000400,-0724,0837,12042,031.8,045.6,0.214,750.0,01.17,0.508
2017-04-07 02:55:00,1588E-3,5C000400,-0724,0837,12131,031.9,045.6,0.214,750.0,01.17,0.508
2017-04-07 02:56:00,1706E-3,5C000400,-0724,0838,12077,031.9,045.6,0.214,749.9,01.17,0.508
2017-04-07 02:57:00,1728E-3,5C000400,-0724,0837,12034,032.0,045.6,0.213,750.0,01.17,0.508
2017-04-07 02:58:00,1601E-3,5C000400,-0724,0836,12134,032.0,045.6,0.213,750.0,01.17,0.508
2017-04-07 02:59:00,1713E-3,5C000400,-0724,0837,12110,032.0,045.6,0.213,750.0,01.17,0.508
2017-04-07 03:00:00,1614E-3,5C000400,-0724,0837,12098,032.1,045.6,0.213,750.0,01.17,0.508
2017-04-07 03:01:00,1734E-3,5C000400,-0724,0837,12160,032.1,045.6,0.213,750.0,01.17,0.508
2017-04-07 03:02:00,1803E-3,5C000400,-0724,0837,12047,032.1,045.6,0.213,750.0,01.17,0.508
2017-04-07 03:03:00,1826E-3,5C000400,-0724,0838,12034,032.2,045.6,0.213,749.9,01.17,0.508
2017-04-07 03:04:00,1692E-3,5C000400,-0724,0837,11970,032.2,045.6,0.213,749.9,01.17,0.508
2017-04-07 03:05:00,1681E-3,5C000400,-0724,0837,12037,032.2,045.6,0.213,749.9,01.17,0.508
2017-04-07 03:06:00,1682E-3,5C000400,-0724,0837,12026,032.2,045.6,0.213,749.9,01.17,0.508
2017-04-07 03:07:00,1846E-3,5C000400,-0724,0837,11909,032.3,045.6,0.213,750.0,01.17,0.508
2017-04-07 03:08:00,1645E-3,5C000400,-0724,0838,12029,032.3,045.6,0.213,750.0,01.17,0.508
2017-04-07 03:09:00,1683E-3,5C000400,-0724,0837,11991,032.3,045.6,0.213,749.9,01.17,0.508
2017-04-07 03:10:00,1735E-3,5C000400,-0724,0837,12012,032.4,045.6,0.213,749.9,01.17,0.508
2017-04-07 03:11:00,1676E-3,5C000400,-0724,0837,12154,032.4,045.6,0.213,749.9,01.17,0.508
2017-04-07 03:12:00,1574E-3,5C000400,-0724,0837,12063,032.4,045.6,0.212,749.9,01.17,0.508
2017-04-07 03:13:00,1794E-3,5C000400,-0724,0837,11995,032.4,045.6,0.212,749.9,01.17,0.508
2017-04-07 03:14:00,1629E-3,5C000400,-0724,0837,12052,032.4,045.6,0.212,749.9,01.17,0.508
2017-04-07 03:15:00,1637E-3,5C000400,-0724,0838,12220,032.5,045.6,0.212,749.9,01.17,0.508
2017-04-07 03:16:00,1620E-3,5C000400,-0724,0837,12025,032.5,045.6,0.212,749.9,01.17,0.508
2017-04-07 03:17:00,1719E-3,5C000400,-0724,0837,12058,032.5,045.6,0.212,749.9,01.17,0.508
2017-04-07 03:18:00,1677E-3,5C000400,-0724,0837,12055,032.5,045.6,0.212,749.9,01.17,0.508
2017-04-07 03:19:00,1721E-3,5C000400,-0724,0837,12088,032.6,045.6,0.212,750.0,01.17,0.508
2017-04-07 03:20:00,1696E-3,5C000400,-0724,0838,12098,032.6,045.6,0.212,749.9,01.17,0.508
2017-04-07 03:21:00,1709E-3,5C000400,-0724,0837,11963,032.6,045.6,0.212,749.9,01.17,0.508
2017-04-07 03:22:00,1604E-3,5C000400,-0724,0837,11990,032.6,045.6,0.212,749.9,01.17,0.508
2017-04-07 03:23:00,1757E-3,5C000400,-0724,0837,12146,032.6,045.6,0.212,749.9,01.17,0.508
2017-04-07 03:24:00,1744E-3,5C000400,-0724,0837,12098,032.6,045.6,0.212,749.9,01.17,0.508
2017-04-07 03:25:00,1643E-3,5C000400,-0724,0838,12111,032.7,045.6,0.212,750.0,01.17,0.508
2017-04-07 03:26:00,1769E-3,5C000400,-0724,0837,12166,032.7,045.6,0.212,749.9,01.17,0.508
2017-04-07 03:27:00,1916E-3,5C000400,-0724,0838,12040,032.7,045.6,0.212,749.9,01.17,0.508
2017-04-07 03:28:00,1700E-3,5C000400,-0724,0837,12017,032.7,045.6,0.211,749.9,01.17,0.508
2017-04-07 03:29:00,1473E-3,5C000400,-0724,0837,12132,032.7,045.6,0.211,749.9,01.17,0.508
2017-04-07 03:30:00,1729E-3,5C000400,-0724,0837,12056,032.8,045.6,0.212,749.9,01.17,0.508
2017-04-07 03:31:00,1543E-3,5C000400,-0724,0837,12080,032.8,045.6,0.212,749.9,01.17,0.508
2017-04-07 03:32:00,1714E-3,5C000400,-0724,0838,11897,032.8,045.6,0.212,749.9,01.17,0.508
2017-04-07 03:33:00,1714E-3,5C000400,-0724,0837,12036,032.8,045.6,0.211,749.9,01.17,0.508
2017-04-07 03:34:00,1729E-3,5C000400,-0724,0838,12193,032.8,045.6,0.211,750.0,01.17,0.508
2017-04-07 03:35:00,1761E-3,5C000400,-0724,0838,12008,032.8,045.6,0.211,750.0,01.17,0.508
2017-04-07 03:36:00,1690E-3,5C000400,-0724,0837,12006,032.8,045.6,0.211,750.0,01.17,0.508
2017-04-07 03:37:00,1797E-3,5C000400,-0724,0837,12159,032.8,045.6,0.211,750.0,01.17,0.508
2017-04-07 03:38:00,1671E-3,5C000400,-0724,0838,12072,032.9,045.6,0.211,749.9,01.17,0.508
2017-04-07 03:39:00,1780E-3,5C000400,-0724,0837,11998,032.9,045.6,0.211,749.9,01.17,0.508
2017-04-07 03:40:00,1654E-3,5C000400,-0724,0838,12116,032.9,045.6,0.211,750.0,01.17,0.508
2017-04-07 03:41:00,1693E-3,5C000400,-0724,0838,11999,032.9,045.6,0.211,750.0,01.17,0.508
2017-04-07 03:42:00,1698E-3,5C000400,-0724,0837,12060,032.9,045.6,0.211,749.9,01.17,0.508
2017-04-07 03:43:00,1852E-3,5C000400,-0724,0837,12043,032.8,045.6,0.211,749.9,01.17,0.508
2017-04-07 03:44:00,1724E-3,5C000400,-0724,0837,12099,032.8,045.6,0.211,750.0,01.17,0.508
2017-04-07 03:45:00,1634E-3,5C000400,-0724,0837,12124,032.6,045.6,0.211,750.0,01.17,0.508
2017-04-07 03:46:00,1668E-3,5C000400,-0724,0837,12112,032.4,045.6,0.211,750.0,01.17,0.508
2017-04-07 03:47:00,1786E-3,5C000400,-0724,0837,12063,032.2,045.6,0.211,750.0,01.17,0.508
2017-04-07 03:48:00,1639E-3,5C000400,-0724,0837,11987,032.0,045.6,0.212,750.1,01.17,0.508
2017-04-07 03:49:00,1688E-3,5C000400,-0724,0836,12144,031.8,045.6,0.211,750.1,01.17,0.508
2017-04-07 03:50:00,1729E-3,5C000400,-0724,0837,12159,031.5,045.6,0.212,750.1,01.17,0.508
2017-04-07 03:51:00,1652E-3,5C000400,-0724,0837,12127,031.3,045.6,0.212,750.1,01.17,0.508
2017-04-07 03:52:00,1642E-3,5C000400,-0724,0836,12028,031.0,045.6,0.212,750.1,01.17,0.508
2017-04-07 03:53:00,1640E-3,5C000400,-0724,0837,12153,030.8,045.6,0.212,750.1,01.17,0.508
2017-04-07 03:54:00,1754E-3,5C000400,-0724,0836,12112,030.6,045.5,0.213,750.1,01.17,0.508
2017-04-07 03:55:00,1659E-3,5C000400,-0724,0836,12086,030.4,045.5,0.214,750.1,01.17,0.508
2017-04-07 03:56:00,1652E-3,5C000400,-0724,0836,12130,030.2,045.5,0.214,750.1,01.17,0.508
2017-04-07 03:57:00,1614E-3,5C000400,-0724,0836,11930,030.1,045.5,0.215,750.1,01.17,0.508
2017-04-07 03:58:00,1629E-3,5C000400,-0724,0836,12089,030.0,045.5,0.215,750.1,01.17,0.508
2017-04-07 03:59:00,1684E-3,5C000400,-0724,0836,12040,030.0,045.5,0.215,750.1,01.17,0.508
2017-04-07 04:00:00,1732E-3,5C000400,-0724,0836,12113,030.0,045.5,0.215,750.1,01.17,0.508
2017-04-07 04:01:00,1742E-3,5C000400,-0724,0836,11999,030.1,045.5,0.215,750.1,01.17,0.508
2017-04-07 04:02:00,1678E-3,5C000400,-0724,0836,12054,030.2,045.5,0.216,750.1,01.17,0.508
2017-04-07 04:03:00,1874E-3,5C000400,-0724,0836,12104,030.3,045.5,0.216,750.0,01.17,0.508
2017-04-07 04:04:00,1634E-3,5C000400,-0724,0836,11985,030.3,045.5,0.217,750.0,01.17,0.508
2017-04-07 04:05:00,1806E-3,5C000400,-0724,0836,12059,030.4,045.6,0.217,750.0,01.17,0.508
2017-04-07 04:06:00,1698E-3,5C000400,-0724,0836,12102,030.5,045.5,0.216,750.0,01.17,0.508
2017-04-07 04:07:00,1697E-3,5C000400,-0724,0836,12034,030.6,045.6,0.216,750.1,01.17,0.508
2017-04-07 04:08:00,1641E-3,5C000400,-0724,0836,12140,030.7,045.6,0.216,750.1,01.17,0.508
2017-04-07 04:09:00,1756E-3,5C000400,-0724,0836,12027,030.7,045.6,0.216,750.0,01.17,0.508
2017-04-07 04:10:00,1574E-3,5C000400,-0724,0836,12086,030.8,045.5,0.216,750.0,01.17,0.508
2017-04-07 04:11:00,1691E-3,5C000400,-0724,0836,12285,030.9,045.5,0.216,750.0,01.17,0.508
2017-04-07 04:12:00,1669E-3,5C000400,-0724,0836,12013,030.9,045.6,0.215,750.0,01.17,0.508
2017-04-07 04:13:00,1816E-3,5C000400,-0724,0836,11986,031.0,045.5,0.216,749.9,01.17,0.508
2017-04-07 04:14:00,1669E-3,5C000400,-0724,0837,11953,031.1,045.6,0.216,750.0,01.17,0.508
2017-04-07 04:15:00,1694E-3,5C000400,-0724,0836,12177,031.1,045.6,0.215,750.0,01.17,0.508
2017-04-07 04:16:00,1790E-3,5C000400,-0724,0837,12242,031.2,045.6,0.215,750.0,01.17,0.508
2017-04-07 04:17:00,1583E-3,5C000400,-0724,0837,12130,031.3,045.6,0.215,750.0,01.17,0.508
2017-04-07 04:18:00,1555E-3,5C000400,-0724,0837,12135,031.3,045.6,0.215,750.0,01.17,0.508
2017-04-07 04:19:00,1667E-3,5C000400,-0724,0837,12043,031.4,045.6,0.215,750.0,01.17,0.508
2017-04-07 04:20:00,1731E-3,5C000400,-0724,0836,12081,031.4,045.6,0.215,750.0,01.17,0.508